Rbgn^[z[y[W
メイン
   新天体発見情報
     Comet P/2006 S4 = 2021 L1 (Christensen)
投稿するにはまず登録を

フラット表示 前のトピック | 次のトピック
投稿者 スレッド
佐藤裕久
投稿日時: 2021-6-18 22:36
モデレータ
登録日: 2005-6-12
居住地: 日本
投稿: 2701
オンライン
Comet P/2006 S4 = 2021 L1 (Christensen)

C. Jacques (Belo Horizonte,ブラジル)の通報によると、5月5日と6日UT、E. Pimentel, J. 
Barrosと彼は、SONEAR天文台(Y00)の0.45-m f/2.9 反射望遠鏡で得たCCD画像からP/2006 S4
(IAUCs 8753, 8768参照)を検出した。Jacquesは、30秒20枚のスタック画像で、拡散した8"の
コマとp.a.223°に向かって3"伸びていると注記した。

検出位置は次のとおり、

     2021 UT             R.A. (2000) Decl.       Mag.   Observer
     June  5.32338   22 31 19.77   -61 31 59.3   18.6   Jacques
           5.33172   22 31 20.43   -61 32 03.4   18.7     "
           5.34006   22 31 20.92   -61 32 07.9   18.7     "
           6.16956   22 32 16.44   -61 39 13.0   18.1     "
           6.17942   22 32 17.15   -61 39 18.3            "
           6.20934   22 32 19.09   -61 39 34.3            "
           6.21281   22 32 19.26   -61 39 36.5            "
           6.21650   22 32 19.49   -61 39 38.2            "

NK 1430およびICQ's 2020 & 2021 Comet Handbookの中野主一氏の予報に対し、Delta(T)は、
-0.55 dayであった。
MPC 75707の予報に対するDelta(T)は、-0.69 dayであった。
彗星年表2021の佐藤裕久の予報に対する修正値は、Delta(T) = -0.61 dayであった。

MPCの連結軌道要素と位置推算表は次のとおり、

Orbital elements:
    P/2006 S4 (Christensen)                                                     
Epoch 2006 May 25.0 TT = JDT 2453880.5                                          
T 2006 June 1.64109 TT                                  Rudenko                 
q   3.0679386            (2000.0)            P               Q                  
n   0.06331753     Peri.  305.70675     +0.84017844     +0.39067408             
a   6.2342862      Node    36.13865     +0.05839070     +0.62437048             
e   0.5078926      Incl.   39.62712     -0.53915742     +0.67641353             
P  15.6                                                                         
From 170 observations 2006 Sept. 22-2021 June 15, mean residual 1".0.           
                                                                                
    P/2006 S4 (Christensen)                                                     
Epoch 2022 Jan. 21.0 TT = JDT 2459600.5                                         
T 2022 Jan. 13.82641 TT                                 Rudenko                 
q   3.1051885            (2000.0)            P               Q                  
n   0.06201822     Peri.  305.15378     +0.83658126     +0.39975263             
a   6.3210592      Node    36.04818     +0.05015259     +0.62502917             
e   0.5087550      Incl.   39.53736     -0.54554240     +0.67047473             
P  15.9                                                                         
From 170 observations 2006 Sept. 22-2021 June 15, mean residual 1".0.           
                                                                                
    P/2006 S4 (Christensen)                                                     
Epoch 2021 July 5.0 TT = JDT 2459400.5                                          
T 2022 Jan. 13.87871 TT                                 Rudenko                 
q   3.1051868            (2000.0)            P               Q                  
n   0.06208353     Peri.  305.14054     +0.83660349     +0.39951143             
a   6.3166253      Node    36.07634     +0.05032183     +0.62526579             
e   0.5084105      Incl.   39.53164     -0.54549273     +0.67039788             
P  15.9                                                                         
From 170 observations 2006 Sept. 22-2021 June 15, mean residual 1".0.           
                                                                                
Ephemeris:
Date    TT    R. A. (2000) Decl.     Delta      r    Elong.  Phase   m1
2021 05 18    22 07 15.6 -59 06 34   3.1417  3.5117   103.1    16.3  18.9
...
2021 06 02    22 27 28.6 -61 03 54   2.9762  3.4669   110.7    15.9  18.8
...
2021 06 10    22 36 17.2 -62 12 30   2.8981  3.4438   114.4    15.6  18.7
...
2021 06 16    22 41 45.9 -63 06 01   2.8448  3.4268   116.9    15.3  18.6
2021 06 17    22 42 34.4 -63 15 03   2.8364  3.4240   117.3    15.3  18.6
2021 06 18    22 43 21.0 -63 24 07   2.8281  3.4212   117.7    15.2  18.6
...
2021 06 24    22 47 18.8 -64 18 48   2.7812  3.4047   120.0    15.0  18.5
...
2021 07 02    22 50 32.9 -65 31 27   2.7266  3.3833   122.5    14.7  18.5
...
2021 07 17    22 49 09.2 -67 37 39   2.6500  3.3447   125.5    14.3  18.4

(MPEC 2021-M34、CBET 4979、oaa-comet 2000)

フラット表示 前のトピック | 次のトピック

題名 投稿者 日時
 » Comet P/2006 S4 = 2021 L1 (Christensen) 佐藤裕久 2021-6-18 22:36

投稿するにはまず登録を
 
© 1999 Tsutomu Seki.